SL-8 DEB, 25085

Orbit data source: Space-Track

SL-8 DEB, 25085 is space debris in LEO originally from a launch on Tue, 12 Feb 1991 UTC launched from the Plesetsk Missile And Space Complex (PKMTR). Debris objects in space refer to the collection of defunct objects orbiting the Earth. Examples of debris include non-operational satellites, rocket bodies, and fragments generated from explosions, collisions, or faulty payload assembly.

Loading next visibility...
Identifier
25085, 1991-009CX
Orbit
LEO
Country
Flag of CISCIS
Related business
Manufacturer
Unknown
Mission
Spacecraft
Bus & Motor
Unknown
Mass
Unknown
Launch date (UTC)
1991-02-12 (35 years ago)
Launch vehicle
Unknown
Launch site
Plesetsk Missile And Space Complex (PKMTR)
Object type
Payload
Rocket body
Debris
Shape & HBR
Unknown shape, 0.1 m
Radar Cross Section
Medium (>0.1 m² and <1 m²)

Expand to show TLE details & history
Last TLE update: 3 days ago

TLE from 3 days ago
0 SL-8 DEB
1 25085U 91009CX  26171.08498405  .00000183  00000-0  17060-2 0  9992
2 25085  74.1090 206.3123 0174693 115.0837 275.4654 12.24444030411402
Epoch: 2026-06-20T02:02Z
TLE epoch observation values (Epoch: 2026-06-20T02:02:22.621Z)
Latitude
27.40937°
Longitude
-84.13871°
Altitude
1,565.272 km
Speed
7.092 km/s
True Right ascension
14h 19m 02s
True Declination
27° 17' 00"
Sunlit
Object was in daylight at epoch
Visualization orbit readout
Latitude
Unknown
Longitude
Unknown
Altitude
Unknown
Speed
Unknown
Apparent Right ascension
Unknown
Apparent Declination
Unknown
Sunlit
N/A
Visualization observer readout
Local Sidereal Time
02:19:21
Azimuth
Unknown
Elevation
Unknown
Doppler factor
Unknown
Orbital elements
Apogee altitude
1,709.969 km
Perigee altitude
1,432.234 km
Semi-major axis
7,949.239 km
Eccentricity
0.01747
Inclination
74.109°
RAAN
206.3123°
Arg. of periapsis
115.0837°
True anomaly
273.46892°
Mean anomaly
275.4654°
Eccentric anomaly
274.46752°
Mean motion
3.06235 °/min
Orbital period
117.56 mins
BSTAR
0.001706
Loading maneuver chart data...
Computing Atmospheric mass density...
Loading historical data...
Loading historical data...
Loading historical data...
Loading historical data...
Loading historical data...
Loading historical data...
Loading historical data...

Documentation

Showing up to 5 results
|